SCP
0 -0 -0 -0 -0 -0 -0 -0 -0 0 0 0 0 0 0 0 -0 0 0 0 0 0 0 0 0 0 0 0 0 0 0 0 0 0 0 0 0 0 0 0 0 0 0 0
0 -0 0 -0 -0 0 -0 -0 -0 0 0 0 0 0 -0 -0 -0 0 0 0 0 0 0 0 0 0 0 0 0 0 0 0 0 0 0 0 0 0 0 0 0 0 0 0
-0 -0 -0 -0 0 0 -0 -0 -0 0 0 -0 -0 -0 -0 -0 -0 -0 0 0 0 0 0 0 0 0 0 0 0 0 0 0 0 0 0 0 0 0 0 0 0 0 0 0
-0 -0 -0 -0 -0 -0 0 -0 0 -0 -0 -0 0 0 0 0 -0 0 0 0 0 0 0 0 0 0 0 0 0 0 0 0 0 0 0 0 0 0 0 0 0 0 0 0
-0 0 0 -0 -0 0 -0 0 0 -0 -0 -0 0 0 0 0 0 0 0 0 0 0 0 0 0 0 0 0 0 0 0 0 0 0 0 0 0 0 0 0 0 0 0 0
0 -0 -0 -0 -0 -0 0 -0 0 0 -0 -0 0 0 0 0 0 0 0 0 0 0 0 0 0 0 0 0 0 0 -0 -0 -0 -0 -0 0 0 0 0 0 0 0 0 0
-0 -0 -0 -0 0 -0 -0 0 0 0 0 0 0 0 0 0 0 0 0 0 0 0 0 0 0 0 0 0 0 -0 -0 -0 -0 -0 0 0 0 0 0 0 0 0 0 0
0 -0 -0 -0 -0 -0 -0 0 0 0 0 0 0 -0 0 0 0 0 0 0 0 0 0 0 0 0 -0 -0 -0 -0 -0 -0 -0 0 0 0 0 0 0 0 0 0 0 0
0 0 0 -0 -0 -0 -0 0 0 0 0 0 0 0 0 0 0 0 0 0 0 0 0 -0 -0 -0 -0 -0 -0 -0 -0 -0 0 0 0 0 0 0 0 0 0 0 0 0
-0 -0 0 0 0 -0 0 0 -0 0 -0 0 0 0 0 0 0 0 0 0 0 0 0 0 0 -0 -0 -0 0 0 0 0 0 0 0 0 0 0 0 0 0 0 0 0
-0 0 -0 0 0 0 0 -0 -0 -0 -0 -0 -0 -0 -0 0 -0 -0 -0 -0 -0 0 0 0 -0 -0 0 0 0 0 0 0 0 0 0 0 0 0 0 0 0 0 0 0
-0 0 -0 0 -0 0 0 0 0 -0 -0 -0 -0 -0 -0 -0 -0 -0 -0 -0 0 0 -0 0 -0 0 0 0 0 0 0 0 0 0 0 0 0 0 0 0 0 0 0 0
-0 -0 -0 0 -0 0 0 0 0 -0 0 -0 -0 -0 -0 -0 -0 -0 -0 -0 0 0 0 -0 -0 -0 0 0 0 0 0 0 0 0 0 0 0 0 0 0 0 0 0 0
0 -0 -0 -0 -0 0 0 0 0 0 0 0 0 0 0 -0 -0 -0 -0 0 -0 -0 -0 -0 0 0 0 0 0 0 0 0 0 0 0 0 0 0 0 0 0 0 0 0
0 0 -0 -0 -0 -0 -0 -0 -0 0 0 -0 -0 -0 -0 -0 -0 -0 -0 -0 -0 -0 0 0 0 0 0 0 0 0 0 0 0 0 0 0 0 0 0 0 0 0 0 0
0 0 0 0 0 -0 -0 -0 -0 -0 0 0 -0 -0 -0 -0 -0 -0 -0 0 0 0 0 0 0 0 0 0 0 0 0 0 0 0 0 0 0 0 0 0 0 0 0 0
0 0 0 0 0 0 0 0 0 0 -0 -0 -0 -0 0 0 0 0 0 0 -0 0 0 0 0 0 0 0 0 0 0 0 0 0 0 0 0 0 0 0 0 0 0 0
0 0 0 0 0 0 0 0 0 0 0 0 0 0 0 0 0 0 0 0 0 0 0 0 0 0 0 0 0 0 0 0 0 0 0 0 0 0 0 0 0 0 0 0
0 0 0 0 0 0 0 0 0 0 0 0 0 0 0 0 0 0 0 0 0 0 0 0 0 0 0 0 0 0 0 0 0 0 0 0 0 0 0 0 0 0 0 0
0 0 0 0 0 0 0 0 0 0 0 0 0 0 0 0 0 0 0 0 0 0 0 0 0 0 0 0 0 0 0 0 0 0 0 0 0 0 0 0 0 0 0 0
0 0 0 0 0 0 0 0 0 0 0 0 0 0 0 0 0 0 0 0 0 0 0 0 0 0 0 0 0 0 0 0 0 0 0 0 0 0 0 0 0 0 0 0
0 0 0 0 0 0 0 0 0 0 0 0 0 0 0 0 0 0 0 0 0 0 0 0 0 0 0 0 0 0 0 0 0 0 0 0 0 0 0 0 0 0 0 0
0 0 0 0 0 0 0 0 0 0 0 0 0 0 0 0 0 0 0 0 0 0 0 0 0 0 0 0 0 0 0 0 0 0 0 0 0 0 0 0 0 0 0 0
0 0 0 0 0 0 0 0 0 0 0 0 0 0 0 0 0 0 0 0 0 0 0 0 0 0 0 0 0 0 0 0 0 0 0 0 0 0 0 0 0 0 0 0
0 0 0 0 0 0 0 0 0 0 0 0 0 0 0 0 0 0 0 0 0 0 0 0 0 0 0 0 0 0 0 0 0 0 0 0 0 0 0 0 0 0 0 0
0 0 0 0 0 0 0 0 0 0 0 0 0 0 0 0 0 0 0 0 0 0 0 0 0 0 0 0 0 0 0 0 0 0 0 0 0 0 0 0 0 0 0 0
0 0 0 0 0 0 0 0 0 0 0 0 0 0 0 0 0 0 0 0 0 0 0 0 0 0 0 0 0 0 0 0 0 0 0 0 0 0 0 0 0 0 0 0
Wind_Speed_500mb
30 37 37 41 40 36 15 8 10 31 39 31 43 40 39 54 33 10 6 18 26 31 50 56 60 61 65 74 76 79 93 93 95 86 78 63 64 63 52 45 39 35 31 25
29 18 11 25 23 25 8 12 18 36 24 37 61 43 48 49 32 22 21 26 32 34 48 53 58 63 75 83 87 93 98 100 91 74 65 66 59 53 49 44 37 32 26 19
10 26 34 2 6 17 19 12 15 17 29 29 43 26 51 48 37 28 30 36 45 54 60 64 69 73 84 90 98 97 90 81 68 69 68 59 54 52 45 40 34 28 22 16
11 20 4 4 12 10 17 3 10 26 38 42 46 29 72 66 41 36 40 49 57 68 75 79 85 88 91 94 95 84 68 69 68 65 59 56 50 48 44 36 30 23 17 11
6 7 13 6 11 11 6 8 15 27 37 55 68 23 49 70 50 44 45 55 66 76 84 87 90 90 90 83 66 63 70 66 62 57 56 52 48 44 38 31 24 17 11 6
7 8 6 4 15 19 15 7 20 31 32 43 54 28 22 53 48 42 50 55 61 64 73 78 82 76 70 67 63 62 59 60 56 51 48 46 41 36 31 23 16 11 8 3
12 8 14 7 35 8 6 8 37 34 35 43 17 21 33 36 43 37 34 38 42 47 52 56 67 70 72 70 59 58 56 55 52 47 43 38 36 31 22 17 12 8 4 4
7 6 13 13 14 8 9 36 30 33 38 40 42 40 39 37 36 34 34 36 40 48 53 54 55 56 58 53 52 52 50 49 46 43 39 35 27 24 16 13 8 4 4 6
12 9 6 4 10 18 21 31 24 30 31 31 33 36 33 34 34 32 32 33 36 45 51 49 49 50 56 50 49 47 44 44 43 41 38 33 24 14 10 9 4 2 5 9
4 8 10 19 17 19 16 18 22 16 19 24 24 22 21 23 26 29 31 30 31 36 42 46 42 41 47 46 44 42 38 40 40 37 36 25 11 5 8 7 1 6 13 13
10 23 36 41 14 5 6 13 15 11 18 22 17 14 15 22 24 27 30 30 28 31 36 40 40 39 36 46 44 43 40 40 39 34 24 15 11 12 7 4 5 7 9 13
11 11 6 1 5 2 5 13 17 18 15 17 14 14 18 24 27 29 29 29 30 32 35 40 39 38 35 33 34 38 38 36 32 25 19 16 12 9 5 0 5 9 11 15
10 15 6 7 8 8 7 10 16 16 14 12 11 16 19 29 34 33 30 29 30 33 36 40 40 38 36 32 28 26 25 30 29 25 19 13 10 5 2 3 6 11 17 20
37 26 20 22 14 9 5 8 12 10 7 7 11 18 21 28 35 32 31 31 32 33 36 37 38 40 38 34 35 33 31 27 19 13 10 8 6 4 2 7 12 15 17 20
47 36 25 11 14 11 11 12 10 6 0 6 14 17 20 23 31 34 32 32 30 32 35 34 33 34 34 34 33 28 21 14 10 9 10 8 5 2 7 9 10 14 18 19
34 39 40 36 28 24 22 17 10 8 10 14 17 19 19 21 30 34 32 31 28 30 30 27 24 25 26 25 20 17 16 13 13 14 11 5 2 3 4 6 10 14 16 21
22 26 34 39 32 25 19 18 11 14 16 18 21 21 22 22 27 33 33 28 24 25 26 24 21 22 21 19 16 14 17 19 14 10 7 3 1 1 5 9 10 13 19 24
31 17 15 16 23 21 20 18 15 18 19 22 22 23 23 25 28 31 29 27 24 22 23 22 19 17 16 17 18 18 17 14 11 8 6 5 2 3 5 6 10 15 20 27
28 20 13 11 14 20 20 15 15 17 20 24 26 29 29 28 27 29 27 24 20 16 18 19 17 18 19 19 18 14 12 10 8 6 3 1 1 1 4 8 14 20 26 33
29 21 15 13 23 25 22 23 23 25 28 31 33 32 31 28 24 20 20 18 18 17 19 20 20 20 18 12 10 10 9 6 4 4 3 3 2 3 7 13 19 25 32 38
28 25 25 28 30 30 26 26 27 31 35 35 30 30 27 23 21 19 18 17 20 21 20 14 14 13 12 10 8 9 7 5 5 5 4 2 1 6 10 16 23 29 35 42
29 35 30 34 30 28 28 29 34 37 37 35 32 25 20 17 16 17 16 14 15 10 9 9 11 12 11 9 9 8 9 9 9 7 5 2 3 8 14 20 26 33 40 48
29 37 31 33 32 29 32 35 38 37 33 30 25 21 17 14 14 13 9 10 11 8 7 9 12 12 11 10 12 13 13 11 8 5 4 3 7 12 16 23 31 40 47 53
35 36 33 35 37 35 39 43 44 40 35 29 27 23 17 12 10 8 10 11 11 11 13 15 17 15 13 15 16 14 11 8 7 6 6 9 11 16 22 28 35 43 51 58
32 30 31 36 39 39 41 44 44 41 35 30 25 19 16 14 12 12 14 15 16 16 18 19 18 15 16 17 16 13 11 10 9 10 11 14 17 21 27 33 40 49 55 62
34 31 31 32 32 37 42 45 43 40 35 31 26 21 17 15 15 17 19 18 19 20 21 22 19 18 18 18 15 13 13 13 15 15 16 19 22 27 32 38 45 52 60 67
39 38 39 40 40 40 39 39 38 33 29 25 21 19 18 18 18 20 20 20 20 22 23 23 22 20 19 18 17 17 18 18 18 19 22 24 28 33 38 44 50 57 64 69
Wind_Direction_500mb
271 274 281 282 286 298 309 337 307 311 303 306 332 319 321 321 332 340 40 120 139 131 150 161 165 165 160 155 152 151 146 143 138 138 137 141 144 135 133 142 143 144 145 144
301 282 284 300 304 328 313 332 323 322 321 339 317 322 340 344 360 40 55 100 132 144 139 143 148 147 149 144 141 141 137 133 133 139 139 139 132 135 140 144 147 145 140 145
275 326 314 247 315 329 321 25 317 341 313 325 335 354 1 354 18 54 86 96 115 130 133 134 137 139 136 136 134 132 134 134 139 137 135 136 140 143 144 146 147 146 148 134
288 318 355 275 31 295 304 340 337 333 338 336 333 349 11 18 34 67 87 98 112 120 124 129 131 131 133 132 133 138 141 137 136 131 140 142 145 143 146 146 147 138 127 133
295 293 270 268 358 349 0 316 354 343 341 341 343 350 17 18 40 67 90 103 113 120 123 127 128 132 133 135 136 137 136 137 138 143 141 146 147 146 144 143 131 132 133 105
336 297 293 330 325 344 126 339 26 357 346 344 351 11 8 18 45 76 92 103 109 117 126 130 136 140 137 134 133 135 142 137 138 143 145 144 139 137 135 132 132 133 123 108
244 271 288 322 312 310 21 290 353 353 351 350 3 354 353 45 56 82 92 101 113 127 132 131 140 144 140 140 139 136 136 138 139 141 139 137 134 134 131 129 141 143 113 30
200 239 277 358 344 66 292 310 332 343 352 356 357 11 29 47 66 82 104 116 122 125 126 132 138 144 135 132 131 137 140 139 138 136 133 131 130 128 136 144 161 129 51 8
184 223 230 295 245 311 310 301 320 331 355 3 8 16 23 45 63 76 95 117 124 127 128 130 134 139 136 135 138 140 141 140 140 140 140 139 132 126 153 142 101 16 352 348
31 270 265 266 277 308 326 326 337 340 3 12 23 27 38 53 64 77 87 107 126 128 127 131 138 142 147 141 145 145 150 150 151 151 150 149 148 148 170 162 97 5 354 334
254 277 273 271 267 303 6 17 24 15 16 31 42 60 75 86 86 85 92 102 120 134 133 132 139 147 149 151 160 158 157 152 154 157 159 168 183 170 148 81 16 342 325 329
223 226 195 241 199 267 355 16 22 30 33 42 65 90 105 104 104 103 102 107 118 127 133 134 142 148 148 148 159 158 164 166 166 172 173 174 165 148 143 141 326 329 332 337
238 225 215 215 237 268 301 359 5 13 24 46 83 108 119 117 116 110 111 118 124 130 136 137 142 143 137 140 145 147 151 151 164 166 166 160 144 128 28 355 330 342 342 340
230 237 254 247 246 245 262 336 349 359 24 66 104 116 129 125 124 120 115 115 119 124 130 133 136 138 138 142 143 149 154 153 161 158 155 154 158 178 287 337 343 335 342 343
225 227 233 236 217 233 269 280 292 317 252 139 136 134 133 129 130 123 121 118 121 128 127 131 136 133 134 143 149 149 152 153 162 171 178 177 186 275 339 337 346 345 343 342
210 220 229 237 245 256 266 246 262 237 188 164 154 145 140 137 139 136 135 128 131 129 124 130 134 134 140 140 142 150 166 172 179 190 185 184 207 325 349 355 351 344 342 351
179 207 224 233 237 251 243 215 231 201 178 164 156 154 146 142 141 144 143 142 142 139 134 127 132 137 141 143 149 167 186 188 185 182 180 180 157 70 16 1 351 359 359 354
212 206 187 209 215 213 197 194 181 176 169 160 155 148 143 147 149 135 135 136 139 139 135 136 142 147 153 161 166 180 183 183 179 174 156 135 78 21 360 3 10 7 1 357
196 203 213 208 186 174 164 163 162 159 156 155 154 149 147 145 138 137 136 134 141 149 153 152 156 164 166 167 168 174 177 169 151 153 141 141 114 68 33 19 12 4 359 355
201 208 202 182 163 161 165 166 167 163 161 159 155 154 149 144 141 143 140 147 159 165 167 168 169 168 165 157 152 165 167 159 153 171 177 160 123 45 20 10 2 358 354 349
205 192 178 169 165 166 161 159 162 160 157 154 156 152 152 153 160 163 164 167 168 168 169 168 163 159 161 157 167 166 168 183 192 193 190 173 19 18 5 356 353 350 345 343
176 170 167 167 164 166 164 161 156 157 156 156 157 162 165 168 174 177 170 166 179 175 178 180 171 170 173 176 184 196 207 208 204 200 198 221 358 356 349 346 342 342 341 340
170 171 168 169 168 168 168 165 161 161 164 164 167 169 171 183 188 176 192 202 196 202 205 202 191 192 198 220 213 208 208 203 200 213 239 313 335 329 330 336 338 338 337 337
170 172 176 176 177 174 175 171 168 167 169 174 177 181 185 191 197 216 229 231 229 230 217 207 205 215 224 216 211 213 209 208 224 248 279 298 306 316 328 333 333 333 334 335
170 175 177 179 178 175 177 179 176 176 179 184 189 192 197 202 218 239 246 258 246 236 227 218 221 229 225 217 218 220 222 232 250 270 282 291 303 314 320 324 328 331 333 334
175 176 177 180 184 184 182 184 185 185 188 192 195 199 209 223 238 253 262 250 238 235 228 225 232 230 225 224 230 235 245 257 267 274 284 293 303 309 315 322 327 331 333 334
177 181 185 187 186 186 189 192 195 195 194 197 206 213 225 240 251 265 259 243 240 238 234 233 239 239 234 239 245 250 253 257 267 277 287 295 303 309 317 324 328 330 332 332
Wind_Speed_850mb
30 37 37 41 40 36 15 8 10 31 39 31 43 40 39 54 33 10 6 18 26 31 50 56 60 61 65 74 76 79 93 93 95 86 78 63 64 63 52 45 39 35 31 25
29 18 11 25 23 25 8 12 18 36 24 37 61 43 48 49 32 22 21 26 32 34 48 53 58 63 75 83 87 93 98 100 91 74 65 66 59 53 49 44 37 32 26 19
10 26 34 2 6 17 19 12 15 17 29 29 43 26 51 48 37 28 30 36 45 54 60 64 69 73 84 90 98 97 90 81 68 69 68 59 54 52 45 40 34 28 22 16
11 20 4 4 12 10 17 3 10 26 38 42 46 29 72 66 41 36 40 49 57 68 75 79 85 88 91 94 95 84 68 69 68 65 59 56 50 48 44 36 30 23 17 11
6 7 13 6 11 11 6 8 15 27 37 55 68 23 49 70 50 44 45 55 66 76 84 87 90 90 90 83 66 63 70 66 62 57 56 52 48 44 38 31 24 17 11 6
7 8 6 4 15 19 15 7 20 31 32 43 54 28 22 53 48 42 50 55 61 64 73 78 82 76 70 67 63 62 59 60 56 51 48 46 41 36 31 23 16 11 8 3
12 8 14 7 35 8 6 8 37 34 35 43 17 21 33 36 43 37 34 38 42 47 52 56 67 70 72 70 59 58 56 55 52 47 43 38 36 31 22 17 12 8 4 4
7 6 13 13 14 8 9 36 30 33 38 40 42 40 39 37 36 34 34 36 40 48 53 54 55 56 58 53 52 52 50 49 46 43 39 35 27 24 16 13 8 4 4 6
12 9 6 4 10 18 21 31 24 30 31 31 33 36 33 34 34 32 32 33 36 45 51 49 49 50 56 50 49 47 44 44 43 41 38 33 24 14 10 9 4 2 5 9
4 8 10 19 17 19 16 18 22 16 19 24 24 22 21 23 26 29 31 30 31 36 42 46 42 41 47 46 44 42 38 40 40 37 36 25 11 5 8 7 1 6 13 13
10 23 36 41 14 5 6 13 15 11 18 22 17 14 15 22 24 27 30 30 28 31 36 40 40 39 36 46 44 43 40 40 39 34 24 15 11 12 7 4 5 7 9 13
11 11 6 1 5 2 5 13 17 18 15 17 14 14 18 24 27 29 29 29 30 32 35 40 39 38 35 33 34 38 38 36 32 25 19 16 12 9 5 0 5 9 11 15
10 15 6 7 8 8 7 10 16 16 14 12 11 16 19 29 34 33 30 29 30 33 36 40 40 38 36 32 28 26 25 30 29 25 19 13 10 5 2 3 6 11 17 20
37 26 20 22 14 9 5 8 12 10 7 7 11 18 21 28 35 32 31 31 32 33 36 37 38 40 38 34 35 33 31 27 19 13 10 8 6 4 2 7 12 15 17 20
47 36 25 11 14 11 11 12 10 6 0 6 14 17 20 23 31 34 32 32 30 32 35 34 33 34 34 34 33 28 21 14 10 9 10 8 5 2 7 9 10 14 18 19
34 39 40 36 28 24 22 17 10 8 10 14 17 19 19 21 30 34 32 31 28 30 30 27 24 25 26 25 20 17 16 13 13 14 11 5 2 3 4 6 10 14 16 21
22 26 34 39 32 25 19 18 11 14 16 18 21 21 22 22 27 33 33 28 24 25 26 24 21 22 21 19 16 14 17 19 14 10 7 3 1 1 5 9 10 13 19 24
31 17 15 16 23 21 20 18 15 18 19 22 22 23 23 25 28 31 29 27 24 22 23 22 19 17 16 17 18 18 17 14 11 8 6 5 2 3 5 6 10 15 20 27
28 20 13 11 14 20 20 15 15 17 20 24 26 29 29 28 27 29 27 24 20 16 18 19 17 18 19 19 18 14 12 10 8 6 3 1 1 1 4 8 14 20 26 33
29 21 15 13 23 25 22 23 23 25 28 31 33 32 31 28 24 20 20 18 18 17 19 20 20 20 18 12 10 10 9 6 4 4 3 3 2 3 7 13 19 25 32 38
28 25 25 28 30 30 26 26 27 31 35 35 30 30 27 23 21 19 18 17 20 21 20 14 14 13 12 10 8 9 7 5 5 5 4 2 1 6 10 16 23 29 35 42
29 35 30 34 30 28 28 29 34 37 37 35 32 25 20 17 16 17 16 14 15 10 9 9 11 12 11 9 9 8 9 9 9 7 5 2 3 8 14 20 26 33 40 48
29 37 31 33 32 29 32 35 38 37 33 30 25 21 17 14 14 13 9 10 11 8 7 9 12 12 11 10 12 13 13 11 8 5 4 3 7 12 16 23 31 40 47 53
35 36 33 35 37 35 39 43 44 40 35 29 27 23 17 12 10 8 10 11 11 11 13 15 17 15 13 15 16 14 11 8 7 6 6 9 11 16 22 28 35 43 51 58
32 30 31 36 39 39 41 44 44 41 35 30 25 19 16 14 12 12 14 15 16 16 18 19 18 15 16 17 16 13 11 10 9 10 11 14 17 21 27 33 40 49 55 62
34 31 31 32 32 37 42 45 43 40 35 31 26 21 17 15 15 17 19 18 19 20 21 22 19 18 18 18 15 13 13 13 15 15 16 19 22 27 32 38 45 52 60 67
39 38 39 40 40 40 39 39 38 33 29 25 21 19 18 18 18 20 20 20 20 22 23 23 22 20 19 18 17 17 18 18 18 19 22 24 28 33 38 44 50 57 64 69
Wind_Direction_850mb
271 274 281 282 286 298 309 337 307 311 303 306 332 319 321 321 332 340 40 120 139 131 150 161 165 165 160 155 152 151 146 143 138 138 137 141 144 135 133 142 143 144 145 144
301 282 284 300 304 328 313 332 323 322 321 339 317 322 340 344 360 40 55 100 132 144 139 143 148 147 149 144 141 141 137 133 133 139 139 139 132 135 140 144 147 145 140 145
275 326 314 247 315 329 321 25 317 341 313 325 335 354 1 354 18 54 86 96 115 130 133 134 137 139 136 136 134 132 134 134 139 137 135 136 140 143 144 146 147 146 148 134
288 318 355 275 31 295 304 340 337 333 338 336 333 349 11 18 34 67 87 98 112 120 124 129 131 131 133 132 133 138 141 137 136 131 140 142 145 143 146 146 147 138 127 133
295 293 270 268 358 349 0 316 354 343 341 341 343 350 17 18 40 67 90 103 113 120 123 127 128 132 133 135 136 137 136 137 138 143 141 146 147 146 144 143 131 132 133 105
336 297 293 330 325 344 126 339 26 357 346 344 351 11 8 18 45 76 92 103 109 117 126 130 136 140 137 134 133 135 142 137 138 143 145 144 139 137 135 132 132 133 123 108
244 271 288 322 312 310 21 290 353 353 351 350 3 354 353 45 56 82 92 101 113 127 132 131 140 144 140 140 139 136 136 138 139 141 139 137 134 134 131 129 141 143 113 30
200 239 277 358 344 66 292 310 332 343 352 356 357 11 29 47 66 82 104 116 122 125 126 132 138 144 135 132 131 137 140 139 138 136 133 131 130 128 136 144 161 129 51 8
184 223 230 295 245 311 310 301 320 331 355 3 8 16 23 45 63 76 95 117 124 127 128 130 134 139 136 135 138 140 141 140 140 140 140 139 132 126 153 142 101 16 352 348
31 270 265 266 277 308 326 326 337 340 3 12 23 27 38 53 64 77 87 107 126 128 127 131 138 142 147 141 145 145 150 150 151 151 150 149 148 148 170 162 97 5 354 334
254 277 273 271 267 303 6 17 24 15 16 31 42 60 75 86 86 85 92 102 120 134 133 132 139 147 149 151 160 158 157 152 154 157 159 168 183 170 148 81 16 342 325 329
223 226 195 241 199 267 355 16 22 30 33 42 65 90 105 104 104 103 102 107 118 127 133 134 142 148 148 148 159 158 164 166 166 172 173 174 165 148 143 141 326 329 332 337
238 225 215 215 237 268 301 359 5 13 24 46 83 108 119 117 116 110 111 118 124 130 136 137 142 143 137 140 145 147 151 151 164 166 166 160 144 128 28 355 330 342 342 340
230 237 254 247 246 245 262 336 349 359 24 66 104 116 129 125 124 120 115 115 119 124 130 133 136 138 138 142 143 149 154 153 161 158 155 154 158 178 287 337 343 335 342 343
225 227 233 236 217 233 269 280 292 317 252 139 136 134 133 129 130 123 121 118 121 128 127 131 136 133 134 143 149 149 152 153 162 171 178 177 186 275 339 337 346 345 343 342
210 220 229 237 245 256 266 246 262 237 188 164 154 145 140 137 139 136 135 128 131 129 124 130 134 134 140 140 142 150 166 172 179 190 185 184 207 325 349 355 351 344 342 351
179 207 224 233 237 251 243 215 231 201 178 164 156 154 146 142 141 144 143 142 142 139 134 127 132 137 141 143 149 167 186 188 185 182 180 180 157 70 16 1 351 359 359 354
212 206 187 209 215 213 197 194 181 176 169 160 155 148 143 147 149 135 135 136 139 139 135 136 142 147 153 161 166 180 183 183 179 174 156 135 78 21 360 3 10 7 1 357
196 203 213 208 186 174 164 163 162 159 156 155 154 149 147 145 138 137 136 134 141 149 153 152 156 164 166 167 168 174 177 169 151 153 141 141 114 68 33 19 12 4 359 355
201 208 202 182 163 161 165 166 167 163 161 159 155 154 149 144 141 143 140 147 159 165 167 168 169 168 165 157 152 165 167 159 153 171 177 160 123 45 20 10 2 358 354 349
205 192 178 169 165 166 161 159 162 160 157 154 156 152 152 153 160 163 164 167 168 168 169 168 163 159 161 157 167 166 168 183 192 193 190 173 19 18 5 356 353 350 345 343
176 170 167 167 164 166 164 161 156 157 156 156 157 162 165 168 174 177 170 166 179 175 178 180 171 170 173 176 184 196 207 208 204 200 198 221 358 356 349 346 342 342 341 340
170 171 168 169 168 168 168 165 161 161 164 164 167 169 171 183 188 176 192 202 196 202 205 202 191 192 198 220 213 208 208 203 200 213 239 313 335 329 330 336 338 338 337 337
170 172 176 176 177 174 175 171 168 167 169 174 177 181 185 191 197 216 229 231 229 230 217 207 205 215 224 216 211 213 209 208 224 248 279 298 306 316 328 333 333 333 334 335
170 175 177 179 178 175 177 179 176 176 179 184 189 192 197 202 218 239 246 258 246 236 227 218 221 229 225 217 218 220 222 232 250 270 282 291 303 314 320 324 328 331 333 334
175 176 177 180 184 184 182 184 185 185 188 192 195 199 209 223 238 253 262 250 238 235 228 225 232 230 225 224 230 235 245 257 267 274 284 293 303 309 315 322 327 331 333 334
177 181 185 187 186 186 189 192 195 195 194 197 206 213 225 240 251 265 259 243 240 238 234 233 239 239 234 239 245 250 253 257 267 277 287 295 303 309 317 324 328 330 332 332